loading
|

THOR AGENA B DEB, 2153

Orbit data source: Space-Track

THOR AGENA B DEB, 2153 is space debris in LEO originally from a launch on Mon, 29 Nov 1965 UTC launched from the Air Force Western Test Range (AFWTR). Debris objects in space refer to the collection of defunct objects orbiting the Earth. Examples of debris include non-operational satellites, rocket bodies, and fragments generated from explosions, collisions, or faulty payload assembly.

Loading next visibility...
Next conjunction unknown
Loading greatness...
THOR AGENA B DEB details
Identifier
2153, 1965-098J
Orbit
LEO
Last TLE update14 hours ago
Origin
Flag of USGSFC (US)
ManufacturerUnknown
MissionSpacecraft
Bus & MotorUnknown bus, Unknown motor
Mass~1 kg wet, ~1 kg dry
Launch date (UTC)
1965-11-29 (59 years ago)
Launch vehicleUnknown
Launch site
Air Force Western Test Range (AFWTR)
Object type
Payload
Rocket body
Debris
Shape & HBRAnn Cyl, 0.2 m
Radar Cross Section0.031 m², Small (<0.1 m²)

Expand to show TLE details & history

TLE from 14 hours ago
0 THOR AGENA B DEB
1 02153U 65098J   24285.39524049  .00014838  00000-0  47682-2 0  9999
2 02153  79.7427 247.1769 1286443 230.7839 301.1300 12.37626660611044
Epoch: 2024-10-11T09:29Z
Definitive object data (Epoch: 2024-10-11T09:29:08.778Z)
Latitude21.36179°
Longitude-99.61344°
Altitude1,099.193 km
Speed7.496 km/s
True Right ascension04h 12m 33s
True Declination21° 15' 03"
Sunlit
Object was in full shadow at TLE epoch
Predictive object data (real-time)
Latitude-48.50695°
Longitude72.16368°
Altitude1,253.193 km
Speed7.357 km/s
Apparent Right ascension11h 05m 08s
Apparent Declination-72° 00' 30"
Sunlit
Object is in daylight
Predictive observer data (real-time)
Local Sidereal Time18:07:57
Azimuth203.748° SW
Elevation-42.408°
Doppler factor1
Orbital elements
Apogee2,529.389 km
Perigee498.807 km
Semi-major axis7,892.235 km
Eccentricity0.1286443
Inclination79.7427°
RAAN247.1769°
Arg. of periapsis230.7839°
True anomaly287.5026°
Mean anomaly301.13°
Eccentric anomaly294.41854°
Mean motion3.09559 °/min
BSTAR0.0047682
Period116.29 mins
No data available

THOR AGENA B DEB Visibility forecast

Observer location: 39.9160978°, -105.1181434

Span
Click to sort rows by Start time (UTC) header in descending order
Start Az.
Max El. time (UTC)
Max El. Az.
Max El.
End time (UTC)
End Az.
24 mins2024-10-12 00:08:13.089Z236.41° WSW2024-10-12 00:20:13.089Z300.863° NW30.975°2024-10-12 00:32:13.089Z0.454° NNE
15 mins2024-10-12 08:30:13.089Z356.824° N2024-10-12 08:39:13.089Z65.774° ENE37.25°2024-10-12 08:45:13.089Z139.29° SSE
13 mins2024-10-12 10:29:13.089Z331.485° NNW2024-10-12 10:36:13.089Z280.763° WNW27.963°2024-10-12 10:42:13.089Z219.027° SW
10 mins2024-10-12 19:38:13.089Z89.328° E2024-10-12 19:43:13.089Z67.558° E13.335°2024-10-12 19:48:13.089Z46.502° ENE
24 mins2024-10-12 21:26:13.089Z160.176° S2024-10-12 21:37:13.089Z92.779° ESE39.848°2024-10-12 21:50:13.089Z19.204° NNE
20 mins2024-10-12 23:24:13.089Z220.463° SW2024-10-12 23:35:13.089Z287.091° WNW38.218°2024-10-12 23:44:13.089Z352.851° N